"Time","Temp","Dewpoint","Humidity","Pressure","Direction","Speed","Gust","Precip","PrecipRate"
"00:04:58","75.2","70.7","86","29.95","151","0.3","1.2","0.00","0.00"
"00:09:57","75.1","70.6","86","29.95","151","0.6","3.5","0.00","0.00"
"00:14:57","75.1","70.6","86","29.95","151","1.7","3.5","0.00","0.00"
"00:19:56","75","70.7","86.7","29.93","151","1.7","3.5","0.00","0.00"
"00:24:59","74.8","70.7","87","29.93","153","2","4","0.00","0.00"
"00:29:58","74.6","70.5","87","29.93","156","0.8","3","0.00","0.00"
"00:34:57","74.6","70.5","87","29.92","156","1.3","4","0.00","0.00"
"00:39:57","74.5","70.3","86.7","29.92","160","2.7","7","0.00","0.00"
"00:44:56","74.5","70","86","29.92","156","3.1","6.9","0.00","0.00"
"00:49:59","74.6","70.1","86","29.89","161","1.7","4","0.00","0.00"
"00:54:58","74.6","70.1","86.2","29.89","235","1.5","3.5","0.00","0.00"
"00:59:56","74.5","70","86.1","29.89","190","1.5","3.5","0.00","0.00"
"01:04:59","74.4","70.3","87","29.89","190","0.5","2.3","0.00","0.00"
"01:09:58","74.3","70.2","87","29.89","190","1.1","3.5","0.00","0.00"
"01:14:58","74.2","70.1","87.2","29.91","190","1","3.5","0.00","0.00"
"01:19:57","74.2","70.1","87","29.91","190","0.4","2.3","0.00","0.00"
"01:24:59","74.1","70.2","87.6","29.91","190","0.5","3","0.00","0.00"
"01:29:58","74.1","70.3","88","29.92","194","1.2","3.5","0.00","0.00"
"01:34:57","74","70.2","88","29.92","194","0.7","3.5","0.00","0.00"
"01:39:57","74","70.2","88","29.92","194","0.3","3","0.00","0.00"
"01:44:57","74","70.2","88","29.92","194","0.4","3.5","0.00","0.00"
"01:49:56","73.8","70","88","29.91","194","0.3","2.3","0.00","0.00"
"01:54:59","73.6","70.2","88.8","29.91","245","1.4","4","0.00","0.00"
"01:59:58","73.5","70.2","89.3","29.91","273","0.3","2.3","0.00","0.00"
"02:04:56","73.4","70.3","90","29.90","273","0.2","3","0.00","0.00"
"02:09:59","73.1","70","90","29.90","273","0.5","3.5","0.00","0.00"
"02:14:56","72.8","69.9","90.8","29.90","273","0.5","2.3","0.00","0.00"
"02:19:59","72.7","69.9","91","29.90","273","0.4","3","0.00","0.00"
"02:24:57","72.5","69.7","91","29.90","273","0.4","3.5","0.00","0.00"
"02:29:56","72.4","69.6","91.2","29.90","273","0.3","2.3","0.00","0.00"
"02:34:56","72.1","69.6","92","29.89","273","0","1.2","0.00","0.00"
"02:39:56","72","69.5","92","29.89","273","0","0","0.00","0.00"
"02:44:59","71.8","69.4","92.2","29.89","273","0","0","0.00","0.00"
"02:49:58","71.6","69.5","93","29.89","273","0","0","0.00","0.00"
"02:54:58","71.3","69.2","93","29.89","273","0","0","0.00","0.00"
"02:59:57","71.1","69.3","94","29.89","273","0","0","0.00","0.00"
"03:04:56","71.1","69.3","94","29.89","273","0","0","0.00","0.00"
"03:09:59","71","69.2","94","29.89","273","0","0","0.00","0.00"
"03:14:59","71","69.2","94","29.89","273","0","0","0.00","0.00"
"03:19:58","70.8","69","94","29.88","273","0","0","0.00","0.00"
"03:24:57","70.6","68.8","94","29.88","273","0","0","0.00","0.00"
"03:29:57","70.5","68.7","94.2","29.88","273","0","0","0.00","0.00"
"03:34:59","70.4","68.9","95","29.87","273","0","0","0.00","0.00"
"03:39:56","70.4","68.9","95","29.87","273","0","0","0.00","0.00"
"03:44:59","70.3","68.8","95","29.87","273","0","0","0.00","0.00"
"03:49:58","70.2","68.7","95","29.87","273","0","0","0.00","0.00"
"03:54:58","70.1","68.6","95","29.87","273","0","0","0.00","0.00"
"03:59:57","70","68.5","95","29.87","273","0","0","0.00","0.00"
"04:04:59","69.9","68.4","95","29.86","273","0","0","0.00","0.00"
"04:09:58","69.8","68.3","95","29.86","273","0","0","0.00","0.00"
"04:14:58","69.8","68.5","95.6","29.86","273","0","0","0.00","0.00"
"04:19:57","69.7","68.3","95.3","29.86","273","0","0","0.00","0.00"
"04:24:57","69.6","68.1","95","29.86","273","0","0","0.00","0.00"
"04:29:56","69.5","68","95","29.86","273","0","0","0.00","0.00"
"04:34:59","69.4","68.1","95.7","29.86","273","0","0","0.00","0.00"
"04:39:59","69.3","68.1","95.9","29.86","273","0","0","0.00","0.00"
"04:44:58","69.3","68.1","96","29.87","273","0","0","0.00","0.00"
"04:49:57","69.3","68.1","96","29.87","273","0","0","0.00","0.00"
"04:54:57","69.2","67.9","95.8","29.87","273","0","0","0.00","0.00"
"04:59:56","69.1","67.9","96","29.87","273","0","0","0.00","0.00"
"05:04:58","68.9","67.7","96","29.87","273","0","0","0.00","0.00"
"05:09:57","68.8","67.6","96","29.87","273","0","0","0.00","0.00"
"05:14:57","68.8","67.6","96","29.87","271","0.4","3","0.00","0.00"
"05:19:56","69","67.8","96","29.86","271","0.5","3.5","0.00","0.00"
"05:24:59","69.1","67.9","96","29.86","271","0","0","0.00","0.00"
"05:29:59","69.2","68","96.1","29.86","145","0.2","4","0.00","0.00"
"05:34:57","69.1","67.9","96","29.86","146","1.3","3.5","0.00","0.00"
"05:39:57","69","67.8","96","29.86","146","0","1.2","0.00","0.00"
"05:44:57","68.9","67.7","96","29.86","146","0","0","0.00","0.00"
"05:49:56","68.9","67.7","96","29.86","146","0.3","2.3","0.00","0.00"
"05:54:59","68.8","67.6","96","29.86","146","0.2","1.2","0.00","0.00"
"05:59:58","68.8","67.6","96","29.86","146","0","1.2","0.00","0.00"
"06:04:56","68.9","67.7","96","29.86","146","0.1","1.2","0.00","0.00"
"06:09:56","68.9","67.7","96","29.86","146","0","1.2","0.00","0.00"
"06:14:57","68.9","67.7","96.1","29.86","146","0.1","1.2","0.00","0.00"
"06:19:56","69","67.9","96.3","29.86","146","0","1.2","0.00","0.00"
"06:24:56","68.9","67.7","96","29.86","146","0.1","1.2","0.00","0.00"
"06:29:58","68.9","67.7","96","29.86","146","0.6","2.3","0.00","0.00"
"06:34:57","68.9","67.8","96.1","29.85","146","0.2","1.2","0.00","0.00"
"06:39:57","69.1","68.2","97","29.85","146","0","1","0.00","0.00"
"06:44:56","69.2","68.3","97","29.85","146","0","1.2","0.00","0.00"
"06:49:58","69.4","68.5","97","29.85","146","0","1.2","0.00","0.00"
"06:54:57","69.7","68.8","97","29.85","146","0","0","0.00","0.00"
"06:59:59","70.2","69.3","97","29.85","146","0.6","2.3","0.00","0.00"
"07:04:57","70.6","69.7","97","29.84","146","0","1","0.00","0.00"
"07:09:57","70.9","69.8","96.2","29.84","146","0.3","2","0.00","0.00"
"07:14:56","71.3","70.1","96","29.84","146","0.3","2.3","0.00","0.00"
"07:19:56","71.9","70.9","96.5","29.84","116","1.4","3.5","0.00","0.00"
"07:24:58","72.6","71.3","95.8","29.84","36","0.4","3.5","0.00","0.00"
"07:29:57","73.1","71.5","94.6","29.84","36","0.7","3.5","0.00","0.00"
"07:34:56","73.7","71.8","93.8","29.84","36","0","0","0.00","0.00"
"07:39:56","74.2","72","93","29.84","36","0","0","0.00","0.00"
"07:44:59","74.8","72.2","91.9","29.84","36","0","0","0.00","0.00"
"07:49:58","75.5","72.7","91","29.84","36","0","0","0.00","0.00"
"07:54:56","76.4","73.4","90.6","29.84","36","0","0","0.00","0.00"
"07:59:59","77","74","90.5","29.84","36","0","0","0.00","0.00"
"08:04:58","77.8","74.7","90.3","29.84","355","0","1.2","0.00","0.00"
"08:09:57","78.3","73.8","86","29.84","203","1","4","0.00","0.00"
"08:14:58","79","73.7","83.7","29.84","196","1.8","4","0.00","0.00"
"08:19:58","79.7","74.1","82.8","29.84","188","1.3","5","0.00","0.00"
"08:24:58","80.4","74.2","81.4","29.84","165","1.9","6","0.00","0.00"
"08:29:57","80.9","74","79.7","29.84","155","2.1","5","0.00","0.00"
"08:34:58","81","74.1","79.7","29.84","144","1.8","5","0.00","0.00"
"08:39:59","80.9","74","79.7","29.84","192","2.5","5","0.00","0.00"
"08:44:59","80.8","74.2","80.3","29.84","184","2.2","4.6","0.00","0.00"
"08:49:59","80.9","74.2","80.2","29.84","184","1.9","5","0.00","0.00"
"08:54:58","81.2","74.4","80.2","29.84","181","1.8","4","0.00","0.00"
"08:59:58","81.3","74.5","80","29.84","180","1.7","4","0.00","0.00"
"09:04:57","81.7","74.8","79.8","29.84","197","2.8","5","0.00","0.00"
"09:09:58","82.2","75.2","79.5","29.84","197","1.5","3.5","0.00","0.00"
"09:14:59","82.7","75.3","78.4","29.84","190","1.5","5","0.00","0.00"
"09:19:59","83.3","75.8","78.2","29.84","188","1.8","4","0.00","0.00"
"09:24:59","83.9","76","77.2","29.84","170","2","4","0.00","0.00"
"09:29:59","84.3","76","76","29.84","158","2","5","0.00","0.00"
"09:34:59","84.7","76.3","76","29.83","174","1.7","4","0.00","0.00"
"09:39:56","85","76.6","75.9","29.83","175","2.1","5","0.00","0.00"
"09:44:56","85.3","76.9","76","29.83","175","1.8","4","0.00","0.00"
"09:49:56","85.5","76.2","73.9","29.82","213","2.5","5","0.00","0.00"
"09:54:59","85.8","76.3","73.3","29.82","199","2.4","5","0.00","0.00"
"09:59:59","86.1","75.7","71.1","29.82","194","3.2","9.2","0.00","0.00"
"10:04:59","85.6","76.6","74.6","29.82","173","2.1","6","0.00","0.00"
"10:09:59","86.2","76.3","72.4","29.82","157","3","5.8","0.00","0.00"
"10:14:56","86.9","76.5","71.3","29.82","179","2.1","6","0.00","0.00"
"10:19:56","87.3","76.7","71.1","29.82","207","1.6","4","0.00","0.00"
"10:24:57","87.7","76.6","69.9","29.82","218","2.4","6","0.00","0.00"
"10:29:56","87.9","76.8","69.6","29.82","196","3.7","9.2","0.00","0.00"
"10:34:56","88.2","76.6","68.8","29.81","169","2.9","9.2","0.00","0.00"
"10:39:57","88.5","75.9","66.5","29.81","207","4","9.2","0.00","0.00"
"10:44:57","88.9","75.4","64.5","29.81","246","2.8","6","0.00","0.00"
"10:49:56","89.4","76.5","65.9","29.81","202","1.9","7","0.00","0.00"
"10:54:56","89.8","77.1","66.3","29.81","247","1.7","7","0.00","0.00"
"10:59:56","90.1","76.3","64.1","29.81","238","3.4","9.2","0.00","0.00"
"11:04:59","90.4","76.3","63.5","29.81","303","2.3","6","0.00","0.00"
"11:09:56","90.7","76.8","63.9","29.81","228","3.6","10.4","0.00","0.00"
"11:14:57","90.9","76.4","62.7","29.81","248","3.1","11","0.00","0.00"
"11:19:56","91.1","76.2","61.9","29.81","272","3.2","8","0.00","0.00"
"11:24:55","91.1","75.6","60.6","29.81","290","4","11","0.00","0.00"
"11:29:59","91.2","76","61.3","29.81","261","3.1","11.5","0.00","0.00"
"11:34:59","91.4","76.5","61.9","29.81","294","2.2","5","0.00","0.00"
"11:39:56","91.8","77.2","62.6","29.81","248","2.1","9.2","0.00","0.00"
"11:44:55","92.1","77","61.7","29.81","274","2.5","7","0.00","0.00"
"11:49:59","92.4","76.7","60.5","29.81","245","2.8","6","0.00","0.00"
"11:54:59","92.5","75.3","57.4","29.81","267","4.9","12","0.00","0.00"
"11:59:58","92.4","73","53.4","29.81","263","4.9","18","0.00","0.00"
"12:04:57","92.5","73.1","53.5","29.81","255","4.9","18.4","0.00","0.00"
"12:09:57","92.7","73","52.9","29.81","258","4.3","12","0.00","0.00"
"12:14:58","92.9","72.9","52.4","29.81","269","4.2","11.5","0.00","0.00"
"12:19:58","93.1","73.7","53.7","29.80","287","3.5","12","0.00","0.00"
"12:24:57","93.1","72.8","52","29.80","319","3.7","11","0.00","0.00"
"12:29:57","93.1","72.9","52.1","29.80","312","4.6","11.5","0.00","0.00"
"12:34:57","92.8","72.1","51.2","29.80","326","4.4","11","0.00","0.00"
"12:39:58","92.4","72.3","52.2","29.80","278","3.4","11.5","0.00","0.00"
"12:44:57","92.3","73.2","54","29.80","262","3.7","10.4","0.00","0.00"
"12:49:57","92.5","73.8","54.7","29.79","240","3.5","7","0.00","0.00"
"12:54:57","92.8","73.3","53.3","29.79","264","3.3","9.2","0.00","0.00"
"12:59:56","92.9","73.5","53.5","29.79","307","3.6","10","0.00","0.00"
"13:04:56","93.1","73.6","53.3","29.79","272","4.5","13","0.00","0.00"
"13:09:56","93.3","74.2","54.1","29.79","253","4.4","12","0.00","0.00"
"13:14:59","93.4","72.6","51.1","29.79","236","4.7","16.1","0.00","0.00"
"13:19:59","93.4","72.8","51.3","29.78","264","4.6","13","0.00","0.00"
"13:24:58","93.7","73","51.4","29.78","294","4.2","13","0.00","0.00"
"13:29:57","93.5","71.4","48.8","29.78","272","5.4","14","0.00","0.00"
"13:34:57","93.3","71.6","49.5","29.78","290","5.2","12","0.00","0.00"
"13:39:57","93.4","71.7","49.6","29.78","261","3.9","11.5","0.00","0.00"
"13:44:57","93.7","73.4","52","29.78","243","3.2","12","0.00","0.00"
"13:49:56","94","72.5","50.1","29.77","223","5.1","13","0.00","0.00"
"13:54:59","93.9","72.4","50","29.77","259","4.8","11.5","0.00","0.00"
"13:59:59","94.1","72.4","49.7","29.77","280","4.5","12","0.00","0.00"
"14:04:58","94.1","72.5","49.9","29.76","232","5.7","15","0.00","0.00"
"14:09:58","94","71.7","48.8","29.76","253","5.1","12","0.00","0.00"
"14:14:59","94.1","72.4","49.6","29.76","274","3.9","11.5","0.00","0.00"
"14:19:59","94.5","72.6","49.4","29.75","272","4.8","15","0.00","0.00"
"14:24:58","94.5","71.8","48","29.75","249","3.7","11.5","0.00","0.00"
"14:29:58","94.3","72.5","49.5","29.75","300","3.2","11.5","0.00","0.00"
"14:34:57","94.4","71.7","48","29.74","285","4.7","14","0.00","0.00"
"14:39:58","94.5","73.2","50.4","29.74","237","3.4","8.1","0.00","0.00"
"14:44:58","94.7","71.9","48","29.74","242","4.4","11.5","0.00","0.00"
"14:49:58","94.7","72.2","48.3","29.73","253","3.5","11.5","0.00","0.00"
"14:54:57","94.6","71.5","47.4","29.73","231","4.9","12","0.00","0.00"
"14:59:56","94.4","71.6","47.8","29.73","255","4.3","10.4","0.00","0.00"
"15:04:56","94.6","71.3","47.1","29.73","247","3.6","9.2","0.00","0.00"
"15:09:56","94.9","71.6","47.3","29.73","265","3.3","10.4","0.00","0.00"
"15:14:57","94.6","71.5","47.5","29.73","271","3.1","10.4","0.00","0.00"
"15:19:56","94.7","71.7","47.7","29.73","305","4.8","14","0.00","0.00"
"15:24:56","94.5","71.6","47.7","29.73","265","4","11.5","0.00","0.00"
"15:29:56","94","71.7","48.6","29.73","260","2.9","10.4","0.00","0.00"
"15:34:56","93.3","70.7","48","29.72","262","3.2","10.4","0.00","0.00"
"15:39:57","92.6","70.9","49.5","29.72","242","3.3","7","0.00","0.00"
"15:44:57","92","70.9","50.4","29.72","210","2.2","6.9","0.00","0.00"
"15:49:57","91.7","70.8","50.7","29.72","311","1.8","4","0.00","0.00"
"15:54:57","91.6","72.3","53.5","29.72","274","0.7","4","0.00","0.00"
"15:59:57","91.3","71.5","52.4","29.73","265","2","5","0.00","0.00"
"16:04:56","91.6","72.4","53.5","29.73","243","2","5","0.00","0.00"
"16:09:56","91.9","72.2","52.8","29.73","242","1.5","4","0.00","0.00"
"16:14:58","91.6","72","52.8","29.73","298","1.3","4","0.00","0.00"
"16:19:58","91.4","72","53.2","29.73","331","1.5","9","0.00","0.00"
"16:24:58","91.3","71.3","52.3","29.73","321","3.5","9.2","0.00","0.00"
"16:29:57","91.1","72.1","54.1","29.73","299","2.1","6","0.00","0.00"
"16:34:57","90.8","71.6","53.6","29.73","295","2.6","7","0.00","0.00"
"16:39:58","90.7","72.2","54.8","29.73","297","1.5","4","0.00","0.00"
"16:44:58","91.2","72.5","54.5","29.73","220","1.5","4","0.00","0.00"
"16:49:58","92.1","73.2","54.2","29.72","280","1.4","4","0.00","0.00"
"16:54:58","92.8","72.3","51.5","29.72","281","2.1","9.2","0.00","0.00"
"16:59:59","93.2","70.2","47.4","29.72","303","5","17.3","0.00","0.00"
"17:04:58","93.2","69.6","46.5","29.72","281","3.4","8.1","0.00","0.00"
"17:09:58","93.2","69.3","45.9","29.72","294","2.7","7","0.00","0.00"
"17:14:59","93.1","68.3","44.5","29.72","275","3.4","12","0.00","0.00"
"17:19:59","92.8","66.5","42.3","29.72","320","4.7","12","0.00","0.00"
"17:24:59","92.5","66.2","42.1","29.72","305","3","11.5","0.00","0.00"
"17:29:59","92.3","66.1","42.4","29.72","308","2.4","11.5","0.00","0.00"
"17:34:58","92.3","65.1","40.9","29.72","311","3.3","12","0.00","0.00"
"17:39:59","92.2","65.1","41.1","29.72","280","3.6","11.5","0.00","0.00"
"17:44:59","92.1","65","41.1","29.72","311","2.1","9.2","0.00","0.00"
"17:49:59","92","65.2","41.4","29.72","286","3.3","12","0.00","0.00"
"17:54:59","91.7","65.3","41.8","29.72","276","2.5","6","0.00","0.00"
"17:59:59","91.7","64.9","41.4","29.72","312","2.7","7","0.00","0.00"
"18:04:58","91.5","64.3","40.7","29.71","323","3.5","12","0.00","0.00"
"18:09:59","91","64.5","41.6","29.71","308","3.3","10.4","0.00","0.00"
"18:14:56","90.7","64.9","42.7","29.71","276","2.3","8","0.00","0.00"
"18:19:56","90.2","64.5","42.7","29.71","311","2.7","9.2","0.00","0.00"
"18:24:59","90","63.7","41.8","29.71","317","4.3","13","0.00","0.00"
"18:29:59","89.8","63.5","41.8","29.72","335","3.4","10.4","0.00","0.00"
"18:34:59","89.6","63.1","41.5","29.72","292","3.5","13","0.00","0.00"
"18:39:56","89.3","63.2","42","29.72","292","2.6","6.9","0.00","0.00"
"18:44:56","89","63.1","42.2","29.72","251","4.1","15","0.00","0.00"
"18:49:57","88.8","62.5","41.6","29.72","325","3.3","9.2","0.00","0.00"
"18:54:57","88.6","63","42.7","29.72","307","3","10.4","0.00","0.00"
"18:59:57","88.3","62.8","42.7","29.72","346","2.2","9.2","0.00","0.00"
"19:04:56","88.1","63","43.4","29.72","307","2.9","9","0.00","0.00"
"19:09:57","87.9","63","43.6","29.72","282","1.4","5.8","0.00","0.00"
"19:14:58","87.7","63.3","44.4","29.72","318","1.7","7","0.00","0.00"
"19:19:58","87.4","63.6","45.1","29.72","278","1.3","6","0.00","0.00"
"19:24:58","87.3","63.5","45.2","29.72","308","2.2","6","0.00","0.00"
"19:29:58","87.2","63.6","45.5","29.72","334","1.5","6","0.00","0.00"
"19:34:58","87","63.6","45.8","29.71","327","2.1","6","0.00","0.00"
"19:39:59","86.9","64.1","46.9","29.71","349","0.9","4","0.00","0.00"
"19:44:59","86.6","64.5","47.9","29.71","12","0.6","5","0.00","0.00"
"19:49:59","86.1","64","47.8","29.70","324","1.8","6","0.00","0.00"
"19:54:59","85.8","63.7","47.8","29.70","325","1.8","5.8","0.00","0.00"
"19:59:59","85.6","63.4","47.6","29.70","335","1.4","4","0.00","0.00"
"20:04:58","85.3","63.7","48.5","29.70","350","1.5","5","0.00","0.00"
"20:09:59","84.9","64","49.7","29.70","5","1.1","3.5","0.00","0.00"
"20:14:56","84.4","63.6","49.8","29.70","4","1.4","4","0.00","0.00"
"20:19:58","84.2","63.3","49.7","29.70","358","2","5","0.00","0.00"
"20:24:58","83.9","63.4","50.1","29.70","320","1.3","4","0.00","0.00"
"20:29:58","83.6","63.2","50.3","29.70","336","1.5","5","0.00","0.00"
"20:34:58","83.3","63.3","51","29.70","345","1","3.5","0.00","0.00"
"20:39:56","82.8","63.6","52.5","29.70","344","0.9","3.5","0.00","0.00"
"20:44:57","82.2","62.9","52.1","29.70","343","1.9","5","0.00","0.00"
"20:49:57","82","62.4","51.7","29.70","340","2.6","7","0.00","0.00"
"20:54:58","81.9","61.6","50.2","29.70","344","2.3","6","0.00","0.00"
"20:59:57","81.9","61.1","49.3","29.70","328","2.9","6","0.00","0.00"
"21:04:57","81.8","60.5","48.5","29.70","349","2.8","6","0.00","0.00"
"21:09:58","81.7","59.7","47.4","29.70","342","2.1","6","0.00","0.00"
"21:14:59","81.6","59.7","47.5","29.71","297","1.6","7","0.00","0.00"
"21:19:59","81.3","59.4","47.5","29.71","323","1.3","4","0.00","0.00"
"21:24:56","80.9","59.3","47.8","29.71","330","1.7","7","0.00","0.00"
"21:29:56","80.8","58.4","46.6","29.72","337","2","4","0.00","0.00"
"21:34:56","80.7","58.5","46.7","29.72","346","2.3","7","0.00","0.00"
"21:39:58","80.7","58.1","46.1","29.72","358","2.3","5.8","0.00","0.00"
"21:44:58","80.6","58.1","46.3","29.73","340","1.8","5","0.00","0.00"
"21:49:58","80.4","58.1","46.7","29.73","332","1.2","4","0.00","0.00"
"21:54:59","80.1","58","47","29.73","330","1.6","4","0.00","0.00"
"21:59:59","79.8","58.3","47.8","29.73","334","1.4","7","0.00","0.00"
"22:04:59","79.5","58.2","48.2","29.73","324","1.8","6","0.00","0.00"
"22:09:59","79.3","58.3","48.8","29.73","329","2.1","5.8","0.00","0.00"
"22:14:57","79.1","58.4","49.2","29.73","335","2.4","8","0.00","0.00"
"22:19:57","79.2","58.4","49","29.73","342","3.1","10.4","0.00","0.00"
"22:24:57","79.4","59","49.8","29.73","356","1.4","6","0.00","0.00"
"22:29:58","79.3","58.7","49.5","29.74","5","0.8","5.8","0.00","0.00"
"22:34:58","79.3","58.9","49.8","29.74","9","0.3","3.5","0.00","0.00"
"22:39:56","79","59","50.4","29.74","9","0","0","0.00","0.00"
"22:44:56","78.7","58.9","50.8","29.75","9","0","0","0.00","0.00"
"22:49:59","78.4","59","51.4","29.75","9","0","0","0.00","0.00"
"22:54:58","78","59","52.2","29.75","9","0","0","0.00","0.00"
"22:59:57","77.5","60.6","56","29.75","9","0","0","0.00","0.00"
"23:04:56","76.8","60.2","56.7","29.75","9","0","0","0.00","0.00"
"23:09:59","76","59.9","57.4","29.75","9","0","0","0.00","0.00"
"23:14:59","75.3","60","59.1","29.75","9","0","0","0.00","0.00"
"23:19:58","74.6","60.1","60.7","29.75","5","0","3","0.00","0.00"
"23:24:57","74","60","61.7","29.75","347","0.5","4","0.00","0.00"
"23:29:56","73.4","59.4","61.6","29.75","313","1","5","0.00","0.00"
"23:34:59","73.1","59.2","61.9","29.75","308","0.3","3","0.00","0.00"
"23:39:56","72.9","58.5","60.7","29.75","311","1","4","0.00","0.00"
"23:44:59","73","58","59.4","29.76","313","0.7","3","0.00","0.00"
"23:49:58","73","58.2","59.7","29.76","311","0.5","3.5","0.00","0.00"
"23:54:57","73","57.7","58.8","29.76","311","0.4","2.3","0.00","0.00"
"23:59:56","72.9","57.1","57.6","29.76","311","0.5","2.3","0.00","0.00"
